COSMOS 1275 DEB, 42191

Orbit data source: Space-Track

COSMOS 1275 DEB, 42191 is space debris in LEO originally from a launch on Thu, 04 Jun 1981 UTC launched from the Plesetsk Missile And Space Complex (PKMTR). Debris objects in space refer to the collection of defunct objects orbiting the Earth. Examples of debris include non-operational satellites, rocket bodies, and fragments generated from explosions, collisions, or faulty payload assembly.

Loading next visibility...
Identifier
42191, 1981-053TF
Orbit
LEO
Country
Flag of CISCIS
Related business
Manufacturer
Unknown
Mission
Spacecraft
Bus & Motor
Unknown
Mass
Unknown
Launch date (UTC)
1981-06-04 (44 years ago)
Launch vehicle
Unknown
Launch site
Plesetsk Missile And Space Complex (PKMTR)
Object type
Payload
Rocket body
Debris
Shape & HBR
Unknown shape, 0.1 m
Radar Cross Section
Small (<0.1 m²)

Expand to show TLE details & history
Last TLE update: 2 days ago

TLE from 2 days ago
0 COSMOS 1275 DEB
1 42191U 81053TF  25292.34477425  .00003900  00000-0  22172-2 0  9998
2 42191  82.8213 318.6392 0035485 311.6727  48.1411 14.09344145609231
Epoch: 2025-10-19T08:16Z
TLE epoch observation values (Epoch: 2025-10-19T08:16:28.495Z)
Latitude
-0.00008°
Longitude
166.45768°
Altitude
847.466 km
Speed
7.438 km/s
True Right ascension
21h 14m 33s
True Declination
0° 00' 00"
Sunlit
Object was in daylight at epoch
Visualization orbit readout
Latitude
Unknown
Longitude
Unknown
Altitude
Unknown
Speed
Unknown
Apparent Right ascension
Unknown
Apparent Declination
Unknown
Sunlit
N/A
Visualization observer readout
Local Sidereal Time
06:33:31
Azimuth
Unknown
Elevation
Unknown
Doppler factor
Unknown
Orbital elements
Apogee altitude
884.403 km
Perigee altitude
833.043 km
Semi-major axis
7,236.86 km
Eccentricity
0.00355
Inclination
82.8213°
RAAN
318.6392°
Arg. of periapsis
311.6727°
True anomaly
48.44485°
Mean anomaly
48.1411°
Eccentric anomaly
48.29289°
Mean motion
3.52548 °/min
Orbital period
102.11 mins
BSTAR
0.0022172

Documentation

Showing up to 5 results
|